Regional Weather Roundup
Issued by NWS

Home | Current Version | Previous Version | Text Only | Print | Product List | Glossary On
Versions: 1 2 3 4 5 6 7 8 9 10 11 12 13 14 15 16 17 18 19 20 21 22 23 24 25 26 27 28 29 30 31 32 33 34 35 36 37 38 39 40 41 42 43 44 45 46 47 48 49 50
000
ASUS43 KDTX 301710
RWRMI
MICHIGAN HOURLY REGIONAL WEATHER ROUNDUP
NATIONAL WEATHER SERVICE DETROIT/PONTIAC MI
100 PM EDT SAT AUG 30 2014

NOTE: "FAIR" INDICATES FEW OR NO CLOUDS BELOW 12,000 FEET WITH NO
SIGNIFICANT WEATHER AND/OR OBSTRUCTION TO VISIBILITY.

MIZ047>049-052>055-059>063-066>070-074>076-081>083-301800-
SOUTHEAST LOWER MICHIGAN

CITY           SKY/WX    TMP DP  RH WIND       PRES   REMARKS
ADRIAN         CLOUDY    81  67  62 SW15G22   29.96S
ALMA           CLOUDY    76  71  82 SW8G16    29.88F
ANN ARBOR      CLOUDY    82  67  60 SW15      29.94F
BAD AXE        CLOUDY    74  71  91 SW7       29.89F
DETROIT CITY   PTSUNNY   86  68  54 SW15G24   29.93F
DETROIT        CLOUDY    83  68  60 S20G26    29.94F
FLINT          CLOUDY    82  68  62 S13G18    29.91F
GROSSE ILE     CLOUDY    81  70  69 S13G20    29.93F
HILLSDALE      CLOUDY    78  69  73 SW10G17   29.96F
HOWELL         CLOUDY    78  68  71 S14G20    29.93S

CITY           SKY/WX    TMP DP  RH WIND       PRES   REMARKS
JACKSON        CLOUDY    78  68  71 SW12      29.94S
LAMBERTVILLE   CLOUDY    82  64  54 S14G20    29.96F
LANSING        CLOUDY    77  68  73 S13G22    29.91F
LAPEER         NOT AVBL
MASON          RAIN      73  69  87 S5        29.92F
MONROE         CLOUDY    82  66  57 SW14G22   29.93F
MT. CLEMENS    PTSUNNY   83  68  61 S13       29.91F
PONTIAC        CLOUDY    80  66  62 S15       29.93S
PORT HOPE        N/A     74  69  85 SW7       29.87S
PORT HURON     MOSUNNY   82  70  65 S15       29.92F
TRI CITIES     CLOUDY    78  71  79 S10       29.88F
YPSILANTI      CLOUDY    84  67  56 SW17G24   29.94F
$$
MIZ043>046-050>051-056>058-064>065-071>073-077>080-301800-
SOUTHWEST LOWER MICHIGAN

CITY           SKY/WX    TMP DP  RH WIND       PRES   REMARKS
BATTLE CREEK   PTSUNNY   79  70  74 S15       29.92F
BENTON HARBOR  PTSUNNY   82  68  62 S12G21    29.87F
BIG RAPIDS     CLOUDY    76  71  85 S9        29.84S
COLDWATER      PTSUNNY   79  69  72 SW12G17   29.94S
HOLLAND        PTSUNNY   81  71  71 S15       29.87S
GRAND RAPIDS   PTSUNNY   79  75  87 SW14      29.87F
KALAMAZOO      PTSUNNY   80  70  71 S16       29.90F
MARSHALL       CLOUDY    77  70  78 S15G21    29.92F
MUSKEGON       CLOUDY    76  69  79 S17G28    29.85R
$$
MIZ016>042-301800-
NORTHERN LOWER MICHIGAN

CITY           SKY/WX    TMP DP  RH WIND       PRES   REMARKS
ALPENA         CLOUDY    73  69  87 S9        29.82F
BEAVER ISLAND  PTSUNNY   75  69  82 SW12G21   29.76S
BELLAIRE       PTSUNNY   78  68  70 S15       29.78S
CADILLAC       PTSUNNY   75  68  78 S14G20    29.83F
CHARLEVOIX     MOSUNNY   78  70  76 S14G22    29.79F
FRANKFORT      MOSUNNY   78  68  71 S14G25    29.78F
GAYLORD        PTSUNNY   74  67  78 SW15G21   29.82F
GRAYLING       CLOUDY    77  68  74 S10G17    29.83F
HARBOR SPRINGS CLOUDY    75  70  82 SW3       29.77S
HOUGHTON LAKE  PTSUNNY   78  69  73 S10       29.84F
MANISTEE       PTSUNNY   79  66  65 S13G20    29.79F
OSCODA         CLOUDY    72  69  91 SW13      29.84F
PELLSTON       PTSUNNY   77  70  79 S14       29.77F
TRAVERSE CITY  PTSUNNY   78  67  68 VRB7      29.77S
$$
MIZ007>008-015-301800-
EASTERN UPPER MICHIGAN

CITY           SKY/WX    TMP DP  RH WIND       PRES   REMARKS
KINROSS        CLOUDY    72  70  94 S8        29.76F
MACKINAC ISLAN CLOUDY    73  70  93 S9        29.77S
NEWBERRY       CLOUDY    67  67  98 SW8       29.75S FOG
S. S. MARIE    CLOUDY    67  65  93 SE6       29.76F FOG
$$
MIZ004>006-011>014-085-301800-
CENTRAL UPPER MICHIGAN

CITY           SKY/WX    TMP DP  RH WIND       PRES   REMARKS
MANISTIQUE     FOG       67  67 100 S5        29.74S VSB<1/4
ESCANABA       CLOUDY    68  64  88 SE5       29.72F
MENOMINEE      CLOUDY    72  66  83 SW6       29.71F
SAWYER-GWINN   RAIN      63  61  94 N12       29.77F
$$
MIZ001>003-009>011-084-301800-
WESTERN UPPER MICHIGAN

CITY           SKY/WX    TMP DP  RH WIND       PRES   REMARKS
IRON MOUNTAIN  LGT RAIN  68  65  90 N6        29.75F FOG
HOUGHTON       CLOUDY    59  55  87 NE13      29.82R
COPPER HARBOR    N/A     57  54  89 NE9       29.81S
$$

ABBREVIATIONS USED IN REMARKS
   TC - TEMPERATURE IN CELSIUS
  WCI - WIND CHILL INDEX
   HX - HEAT INDEX
  VSB - VISIBILITY



USA.gov is the U.S. government's official web portal to all federal, state and local government web resources and services.